Time,TemperatureF,DewpointF,PressureIn,WindDirection,WindDirectionDegrees,WindSpeedMPH,WindSpeedGustMPH,Humidity,HourlyPrecipIn,Conditions,Clouds,dailyrainin,SoftwareType,DateUTC
2013-04-25 00:02:00,42.1,21.1,30.01,WSW,247,2.7,2.7,43,0.00,,,0.00,WUHU21623XXSP,2013-04-25 07:02:00,
2013-04-25 00:07:00,42.1,21.1,30.01,WSW,247,0.9,2.7,43,0.00,,,0.00,WUHU21623XXSP,2013-04-25 07:07:00,
2013-04-25 00:13:00,41.9,20.9,30.01,WSW,247,1.8,1.8,43,0.00,,,0.00,WUHU21623XXSP,2013-04-25 07:13:00,
2013-04-25 00:18:00,41.7,20.7,30.01,WSW,247,2.2,2.2,43,0.00,,,0.00,WUHU21623XXSP,2013-04-25 07:18:00,
2013-04-25 00:23:00,41.7,20.7,30.01,WSW,247,2.2,2.2,43,0.00,,,0.00,WUHU21623XXSP,2013-04-25 07:23:00,
2013-04-25 00:28:00,41.5,20.6,30.01,WSW,247,0.7,2.2,43,0.00,,,0.00,WUHU21623XXSP,2013-04-25 07:28:00,
2013-04-25 00:33:00,41.5,20.6,30.01,WSW,247,0.0,1.6,43,0.00,,,0.00,WUHU21623XXSP,2013-04-25 07:33:00,
2013-04-25 00:39:00,41.2,20.2,30.01,WSW,247,0.0,0.0,43,0.00,,,0.00,WUHU21623XXSP,2013-04-25 07:39:00,
2013-04-25 00:44:00,41.2,20.2,30.01,WSW,247,0.0,0.0,43,0.00,,,0.00,WUHU21623XXSP,2013-04-25 07:44:00,
2013-04-25 00:49:00,41.0,20.1,30.01,WSW,247,0.0,0.0,43,0.00,,,0.00,WUHU21623XXSP,2013-04-25 07:49:00,
2013-04-25 00:54:00,40.8,19.9,30.01,WSW,247,0.0,0.0,43,0.00,,,0.00,WUHU21623XXSP,2013-04-25 07:54:00,
2013-04-25 01:00:00,40.8,19.9,30.01,WSW,247,0.0,0.0,43,0.00,,,0.00,WUHU21623XXSP,2013-04-25 08:00:00,
2013-04-25 01:06:00,40.6,20.3,30.01,WSW,247,0.0,0.0,44,0.00,,,0.00,WUHU21623XXSP,2013-04-25 08:06:00,
2013-04-25 01:11:00,40.1,19.8,30.01,WSW,247,0.0,0.0,44,0.00,,,0.00,WUHU21623XXSP,2013-04-25 08:11:00,
2013-04-25 01:16:00,39.9,19.6,30.00,WSW,247,0.0,0.0,44,0.00,,,0.00,WUHU21623XXSP,2013-04-25 08:16:00,
2013-04-25 01:21:00,39.6,19.8,30.00,WSW,247,0.0,0.0,45,0.00,,,0.00,WUHU21623XXSP,2013-04-25 08:21:00,
2013-04-25 01:27:00,39.2,19.5,30.00,WSW,247,0.0,0.0,45,0.00,,,0.00,WUHU21623XXSP,2013-04-25 08:27:00,
2013-04-25 01:32:00,39.0,19.3,30.00,WSW,247,0.0,0.0,45,0.00,,,0.00,WUHU21623XXSP,2013-04-25 08:32:00,
2013-04-25 01:37:00,38.8,19.7,30.00,WSW,247,0.0,0.0,46,0.00,,,0.00,WUHU21623XXSP,2013-04-25 08:37:00,
2013-04-25 01:42:00,38.5,19.4,30.00,WSW,247,0.0,0.0,46,0.00,,,0.00,WUHU21623XXSP,2013-04-25 08:42:00,
2013-04-25 01:47:00,38.3,19.2,30.00,WSW,247,0.0,0.0,46,0.00,,,0.00,WUHU21623XXSP,2013-04-25 08:47:00,
2013-04-25 01:53:00,37.9,19.4,30.00,WSW,247,0.0,0.0,47,0.00,,,0.00,WUHU21623XXSP,2013-04-25 08:53:00,
2013-04-25 01:58:00,37.8,19.2,30.00,WSW,247,0.0,0.0,47,0.00,,,0.00,WUHU21623XXSP,2013-04-25 08:58:00,
2013-04-25 02:04:00,37.4,18.9,30.00,WSW,247,0.0,0.0,47,0.00,,,0.00,WUHU21623XXSP,2013-04-25 09:04:00,
2013-04-25 02:09:00,37.2,19.3,29.99,WSW,247,0.0,0.0,48,0.00,,,0.00,WUHU21623XXSP,2013-04-25 09:09:00,
2013-04-25 02:14:00,36.9,18.9,29.99,WSW,247,0.0,0.0,48,0.00,,,0.00,WUHU21623XXSP,2013-04-25 09:14:00,
2013-04-25 02:20:00,36.5,19.1,29.99,WSW,247,0.0,0.0,49,0.00,,,0.00,WUHU21623XXSP,2013-04-25 09:20:00,
2013-04-25 02:25:00,36.3,19.0,29.99,WSW,247,0.0,0.0,49,0.00,,,0.00,WUHU21623XXSP,2013-04-25 09:25:00,
2013-04-25 02:30:00,36.0,18.7,30.00,WSW,247,0.0,0.0,49,0.00,,,0.00,WUHU21623XXSP,2013-04-25 09:30:00,
2013-04-25 02:35:00,35.8,18.5,29.99,WSW,247,0.0,0.0,49,0.00,,,0.00,WUHU21623XXSP,2013-04-25 09:35:00,
2013-04-25 02:41:00,35.8,18.5,29.99,WSW,247,0.0,0.0,49,0.00,,,0.00,WUHU21623XXSP,2013-04-25 09:41:00,
2013-04-25 02:46:00,35.4,18.7,29.99,WSW,247,0.0,1.6,50,0.00,,,0.00,WUHU21623XXSP,2013-04-25 09:46:00,
2013-04-25 02:51:00,35.4,18.7,29.99,WSW,247,0.0,1.6,50,0.00,,,0.00,WUHU21623XXSP,2013-04-25 09:51:00,
2013-04-25 02:56:00,35.4,19.1,29.99,WSW,247,1.3,1.3,51,0.00,,,0.00,WUHU21623XXSP,2013-04-25 09:56:00,
2013-04-25 03:02:00,35.4,18.7,29.99,WSW,247,0.0,1.3,50,0.00,,,0.00,WUHU21623XXSP,2013-04-25 10:02:00,
2013-04-25 03:07:00,35.8,19.5,29.99,West,270,0.0,0.0,51,0.00,,,0.00,WUHU21623XXSP,2013-04-25 10:07:00,
2013-04-25 03:13:00,35.4,19.1,29.99,West,270,0.0,0.0,51,0.00,,,0.00,WUHU21623XXSP,2013-04-25 10:13:00,
2013-04-25 03:18:00,35.2,18.5,29.99,West,270,0.0,0.0,50,0.00,,,0.00,WUHU21623XXSP,2013-04-25 10:18:00,
2013-04-25 03:23:00,35.2,18.9,29.99,West,270,0.0,0.0,51,0.00,,,0.00,WUHU21623XXSP,2013-04-25 10:23:00,
2013-04-25 03:28:00,34.7,18.4,29.99,West,270,0.0,0.0,51,0.00,,,0.00,WUHU21623XXSP,2013-04-25 10:28:00,
2013-04-25 03:34:00,34.5,18.6,29.99,West,270,0.0,0.0,52,0.00,,,0.00,WUHU21623XXSP,2013-04-25 10:34:00,
2013-04-25 03:39:00,34.3,18.5,29.99,West,270,0.0,0.0,52,0.00,,,0.00,WUHU21623XXSP,2013-04-25 10:39:00,
2013-04-25 03:44:00,34.3,18.5,29.99,West,270,0.0,0.0,52,0.00,,,0.00,WUHU21623XXSP,2013-04-25 10:44:00,
2013-04-25 03:49:00,34.3,18.9,29.99,West,270,0.0,0.0,53,0.00,,,0.00,WUHU21623XXSP,2013-04-25 10:49:00,
2013-04-25 03:55:00,34.0,18.5,29.99,West,270,0.0,0.0,53,0.00,,,0.00,WUHU21623XXSP,2013-04-25 10:55:00,
2013-04-25 04:00:00,33.6,18.2,29.99,West,270,0.0,0.0,53,0.00,,,0.00,WUHU21623XXSP,2013-04-25 11:00:00,
2013-04-25 04:05:00,33.6,18.6,29.99,West,270,0.0,0.0,54,0.00,,,0.00,WUHU21623XXSP,2013-04-25 11:05:00,
2013-04-25 04:11:00,33.3,18.3,29.98,West,270,0.0,0.0,54,0.00,,,0.00,WUHU21623XXSP,2013-04-25 11:11:00,
2013-04-25 04:16:00,32.9,18.0,29.98,West,270,0.0,2.2,54,0.00,,,0.00,WUHU21623XXSP,2013-04-25 11:16:00,
2013-04-25 04:22:00,32.5,17.7,29.98,West,270,0.0,2.2,54,0.00,,,0.00,WUHU21623XXSP,2013-04-25 11:22:00,
2013-04-25 04:27:00,32.5,17.7,29.98,West,270,0.0,0.0,54,0.00,,,0.00,WUHU21623XXSP,2013-04-25 11:27:00,
2013-04-25 04:32:00,32.2,17.8,29.98,West,270,0.0,0.0,55,0.00,,,0.00,WUHU21623XXSP,2013-04-25 11:32:00,
2013-04-25 04:37:00,32.2,17.8,29.98,West,270,0.0,0.0,55,0.00,,,0.00,WUHU21623XXSP,2013-04-25 11:37:00,
2013-04-25 04:42:00,32.4,18.4,29.98,WSW,247,0.0,0.0,56,0.00,,,0.00,WUHU21623XXSP,2013-04-25 11:42:00,
2013-04-25 04:48:00,32.4,18.4,29.98,WSW,247,0.0,0.0,56,0.00,,,0.00,WUHU21623XXSP,2013-04-25 11:48:00,
2013-04-25 04:53:00,32.4,17.9,29.98,WSW,247,0.0,0.0,55,0.00,,,0.00,WUHU21623XXSP,2013-04-25 11:53:00,
2013-04-25 04:58:00,32.2,18.2,29.98,WSW,247,0.0,0.0,56,0.00,,,0.00,WUHU21623XXSP,2013-04-25 11:58:00,
2013-04-25 05:03:00,32.2,18.6,29.98,WSW,247,0.0,0.0,57,0.00,,,0.00,WUHU21623XXSP,2013-04-25 12:03:00,
2013-04-25 05:09:00,31.6,18.1,29.98,WSW,247,0.9,2.7,57,0.00,,,0.00,WUHU21623XXSP,2013-04-25 12:09:00,
2013-04-25 05:14:00,31.3,17.8,29.98,WSW,247,0.0,2.7,57,0.00,,,0.00,WUHU21623XXSP,2013-04-25 12:14:00,
2013-04-25 05:19:00,31.3,18.6,29.99,WSW,247,0.0,0.0,59,0.00,,,0.00,WUHU21623XXSP,2013-04-25 12:19:00,
2013-04-25 05:24:00,31.3,18.6,29.99,WSW,247,0.0,0.0,59,0.00,,,0.00,WUHU21623XXSP,2013-04-25 12:24:00,
2013-04-25 05:30:00,31.3,18.2,29.99,SW,225,1.6,2.0,58,0.00,,,0.00,WUHU21623XXSP,2013-04-25 12:30:00,
2013-04-25 05:35:00,30.9,17.8,29.99,WSW,247,0.0,2.0,58,0.00,,,0.00,WUHU21623XXSP,2013-04-25 12:35:00,
2013-04-25 05:41:00,30.7,17.7,29.99,WSW,247,0.0,0.0,58,0.00,,,0.00,WUHU21623XXSP,2013-04-25 12:41:00,
2013-04-25 05:46:00,30.6,17.5,29.99,WSW,247,0.0,0.0,58,0.00,,,0.00,WUHU21623XXSP,2013-04-25 12:46:00,
2013-04-25 05:51:00,30.6,18.3,29.99,WSW,247,0.0,0.0,60,0.00,,,0.00,WUHU21623XXSP,2013-04-25 12:51:00,
2013-04-25 05:56:00,30.7,19.2,29.99,WSW,247,0.0,0.0,62,0.00,,,0.00,WUHU21623XXSP,2013-04-25 12:56:00,
2013-04-25 06:02:00,30.7,18.9,29.99,WSW,247,0.0,0.0,61,0.00,,,0.00,WUHU21623XXSP,2013-04-25 13:02:00,
2013-04-25 06:07:00,30.7,18.9,29.99,WSW,247,0.0,0.0,61,0.00,,,0.00,WUHU21623XXSP,2013-04-25 13:07:00,
2013-04-25 06:12:00,30.7,18.9,29.99,WSW,247,0.0,0.0,61,0.00,,,0.00,WUHU21623XXSP,2013-04-25 13:12:00,
2013-04-25 06:17:00,30.7,18.9,29.99,WSW,247,0.0,0.0,61,0.00,,,0.00,WUHU21623XXSP,2013-04-25 13:17:00,
2013-04-25 06:22:00,30.6,18.3,29.99,WSW,247,0.0,0.0,60,0.00,,,0.00,WUHU21623XXSP,2013-04-25 13:22:00,
2013-04-25 06:28:00,30.6,18.3,30.00,WSW,247,0.0,0.0,60,0.00,,,0.00,WUHU21623XXSP,2013-04-25 13:28:00,
2013-04-25 06:33:00,30.4,18.1,30.00,WSW,247,0.0,0.0,60,0.00,,,0.00,WUHU21623XXSP,2013-04-25 13:33:00,
2013-04-25 06:39:00,30.6,18.3,30.00,WSW,247,0.0,0.0,60,0.00,,,0.00,WUHU21623XXSP,2013-04-25 13:39:00,
2013-04-25 06:44:00,30.7,18.9,30.00,WSW,247,0.0,0.0,61,0.00,,,0.00,WUHU21623XXSP,2013-04-25 13:44:00,
2013-04-25 06:49:00,30.9,19.0,30.00,WSW,247,0.0,0.0,61,0.00,,,0.00,WUHU21623XXSP,2013-04-25 13:49:00,
2013-04-25 06:55:00,30.9,19.0,30.00,WSW,247,0.0,0.0,61,0.00,,,0.00,WUHU21623XXSP,2013-04-25 13:55:00,
2013-04-25 07:00:00,30.9,18.7,30.00,WSW,247,0.0,0.0,60,0.00,,,0.00,WUHU21623XXSP,2013-04-25 14:00:00,
2013-04-25 07:05:00,31.3,19.4,30.00,WSW,247,0.0,0.0,61,0.00,,,0.00,WUHU21623XXSP,2013-04-25 14:05:00,
2013-04-25 07:10:00,31.5,19.6,30.00,WSW,247,0.0,0.0,61,0.00,,,0.00,WUHU21623XXSP,2013-04-25 14:10:00,
2013-04-25 07:15:00,31.8,19.9,30.00,WSW,247,0.0,0.0,61,0.00,,,0.00,WUHU21623XXSP,2013-04-25 14:15:00,
2013-04-25 07:21:00,32.4,20.8,30.01,WSW,247,0.0,0.0,62,0.00,,,0.00,WUHU21623XXSP,2013-04-25 14:21:00,
2013-04-25 07:26:00,33.1,21.5,30.01,WSW,247,0.0,0.0,62,0.00,,,0.00,WUHU21623XXSP,2013-04-25 14:26:00,
2013-04-25 07:31:00,33.6,22.3,30.01,WSW,247,0.0,0.0,63,0.00,,,0.00,WUHU21623XXSP,2013-04-25 14:31:00,
2013-04-25 07:37:00,34.3,23.0,30.01,WSW,247,0.0,0.0,63,0.00,,,0.00,WUHU21623XXSP,2013-04-25 14:37:00,
2013-04-25 07:42:00,35.2,23.9,30.01,WSW,247,0.0,0.0,63,0.00,,,0.00,WUHU21623XXSP,2013-04-25 14:42:00,
2013-04-25 07:48:00,36.3,24.9,30.01,WSW,247,0.0,0.7,63,0.00,,,0.00,WUHU21623XXSP,2013-04-25 14:48:00,
2013-04-25 07:53:00,37.2,25.4,30.01,WSW,247,0.0,0.7,62,0.00,,,0.00,WUHU21623XXSP,2013-04-25 14:53:00,
2013-04-25 07:58:00,38.7,26.3,30.01,WSW,247,0.0,0.0,61,0.00,,,0.00,WUHU21623XXSP,2013-04-25 14:58:00,
2013-04-25 08:03:00,39.7,27.0,30.01,WSW,247,0.0,0.0,60,0.00,,,0.00,WUHU21623XXSP,2013-04-25 15:03:00,
2013-04-25 08:09:00,41.4,26.3,30.01,WSW,247,0.0,0.0,55,0.00,,,0.00,WUHU21623XXSP,2013-04-25 15:09:00,
2013-04-25 08:14:00,42.6,27.1,30.01,WSW,247,0.0,0.0,54,0.00,,,0.00,WUHU21623XXSP,2013-04-25 15:14:00,
2013-04-25 08:19:00,44.1,27.5,30.01,WSW,247,0.0,0.0,52,0.00,,,0.00,WUHU21623XXSP,2013-04-25 15:19:00,
2013-04-25 08:24:00,46.2,29.0,30.00,WSW,247,0.0,0.0,51,0.00,,,0.00,WUHU21623XXSP,2013-04-25 15:24:00,
2013-04-25 08:30:00,48.0,29.1,30.00,WSW,247,0.0,0.0,48,0.00,,,0.00,WUHU21623XXSP,2013-04-25 15:30:00,
2013-04-25 08:35:00,51.1,30.9,30.00,East,90,0.0,0.7,46,0.00,,,0.00,WUHU21623XXSP,2013-04-25 15:35:00,
2013-04-25 08:40:00,52.7,31.8,30.01,NE,45,2.9,2.9,45,0.00,,,0.00,WUHU21623XXSP,2013-04-25 15:40:00,
2013-04-25 08:46:00,55.0,32.3,30.01,NE,45,0.0,2.9,42,0.00,,,0.00,WUHU21623XXSP,2013-04-25 15:46:00,
2013-04-25 08:51:00,57.0,32.9,30.00,ENE,67,0.0,0.0,40,0.00,,,0.00,WUHU21623XXSP,2013-04-25 15:51:00,
2013-04-25 08:56:00,58.3,32.6,30.00,ENE,67,0.0,0.0,38,0.00,,,0.00,WUHU21623XXSP,2013-04-25 15:56:00,
2013-04-25 09:02:00,59.5,33.8,30.00,ENE,67,0.0,0.0,38,0.00,,,0.00,WUHU21623XXSP,2013-04-25 16:02:00,
2013-04-25 09:07:00,61.3,33.9,30.00,ESE,112,0.0,1.6,36,0.00,,,0.00,WUHU21623XXSP,2013-04-25 16:07:00,
2013-04-25 09:12:00,62.4,33.5,30.00,ENE,67,0.0,1.6,34,0.00,,,0.00,WUHU21623XXSP,2013-04-25 16:12:00,
2013-04-25 09:17:00,63.9,34.8,30.00,SE,135,0.0,2.2,34,0.00,,,0.00,WUHU21623XXSP,2013-04-25 16:17:00,
2013-04-25 09:23:00,64.9,35.0,30.00,ESE,112,0.7,2.2,33,0.00,,,0.00,WUHU21623XXSP,2013-04-25 16:23:00,
2013-04-25 09:28:00,66.2,35.4,30.00,ENE,67,0.9,0.9,32,0.00,,,0.00,WUHU21623XXSP,2013-04-25 16:28:00,
2013-04-25 09:33:00,66.7,35.1,30.00,ENE,67,0.0,0.9,31,0.00,,,0.00,WUHU21623XXSP,2013-04-25 16:33:00,
2013-04-25 09:38:00,67.6,36.6,30.00,SE,135,1.6,2.2,32,0.00,,,0.00,WUHU21623XXSP,2013-04-25 16:38:00,
2013-04-25 09:43:00,68.4,35.7,30.00,ENE,67,0.0,2.9,30,0.00,,,0.00,WUHU21623XXSP,2013-04-25 16:43:00,
2013-04-25 09:49:00,68.9,36.2,30.00,SE,135,0.9,2.9,30,0.00,,,0.00,WUHU21623XXSP,2013-04-25 16:49:00,
2013-04-25 09:55:00,69.6,36.9,30.00,NNW,337,0.0,1.6,30,0.00,,,0.00,WUHU21623XXSP,2013-04-25 16:55:00,
2013-04-25 10:00:00,70.0,37.2,30.00,SE,135,0.0,2.9,30,0.00,,,0.00,WUHU21623XXSP,2013-04-25 17:00:00,
2013-04-25 10:05:00,70.5,36.7,30.00,NE,45,0.7,2.9,29,0.00,,,0.00,WUHU21623XXSP,2013-04-25 17:05:00,
2013-04-25 10:10:00,70.7,37.9,30.00,ENE,67,0.0,0.7,30,0.00,,,0.00,WUHU21623XXSP,2013-04-25 17:10:00,
2013-04-25 10:16:00,71.4,37.5,30.00,NNE,22,0.0,0.7,29,0.00,,,0.00,WUHU21623XXSP,2013-04-25 17:16:00,
2013-04-25 10:21:00,71.4,37.5,30.00,ENE,67,3.6,3.6,29,0.00,,,0.00,WUHU21623XXSP,2013-04-25 17:21:00,
2013-04-25 10:26:00,71.6,37.6,30.00,NNE,22,4.9,4.9,29,0.00,,,0.00,WUHU21623XXSP,2013-04-25 17:26:00,
2013-04-25 10:31:00,71.6,38.7,30.00,ENE,67,1.6,4.9,30,0.00,,,0.00,WUHU21623XXSP,2013-04-25 17:31:00,
2013-04-25 10:36:00,71.8,38.8,30.00,NNE,22,0.0,3.8,30,0.00,,,0.00,WUHU21623XXSP,2013-04-25 17:36:00,
2013-04-25 10:42:00,72.1,39.1,30.00,NW,315,0.0,3.8,30,0.00,,,0.00,WUHU21623XXSP,2013-04-25 17:42:00,
2013-04-25 10:47:00,72.7,39.5,30.00,WSW,247,2.5,7.4,30,0.00,,,0.00,WUHU21623XXSP,2013-04-25 17:47:00,
2013-04-25 10:53:00,73.2,40.0,30.00,WNW,292,0.0,7.4,30,0.00,,,0.00,WUHU21623XXSP,2013-04-25 17:53:00,
2013-04-25 10:58:00,73.6,39.2,30.00,North,0,1.8,1.8,29,0.00,,,0.00,WUHU21623XXSP,2013-04-25 17:58:00,
2013-04-25 11:03:00,73.6,40.3,30.00,WSW,247,0.0,1.8,30,0.00,,,0.00,WUHU21623XXSP,2013-04-25 18:03:00,
2013-04-25 11:09:00,74.3,40.9,30.01,NW,315,4.0,6.3,30,0.00,,,0.00,WUHU21623XXSP,2013-04-25 18:09:00,
2013-04-25 11:14:00,74.8,41.4,30.01,WSW,247,2.5,6.3,30,0.00,,,0.00,WUHU21623XXSP,2013-04-25 18:14:00,
2013-04-25 11:19:00,74.8,41.4,30.01,NNE,22,0.7,4.3,30,0.00,,,0.00,WUHU21623XXSP,2013-04-25 18:19:00,
2013-04-25 11:24:00,74.5,41.1,30.01,NNE,22,0.0,11.0,30,0.00,,,0.00,WUHU21623XXSP,2013-04-25 18:24:00,
2013-04-25 11:30:00,74.8,41.4,30.01,NW,315,8.7,11.0,30,0.00,,,0.00,WUHU21623XXSP,2013-04-25 18:30:00,
2013-04-25 11:35:00,75.0,41.6,30.01,West,270,0.0,8.7,30,0.00,,,0.00,WUHU21623XXSP,2013-04-25 18:35:00,
2013-04-25 11:40:00,75.4,41.9,30.01,NNW,337,0.0,2.2,30,0.00,,,0.00,WUHU21623XXSP,2013-04-25 18:40:00,
2013-04-25 11:45:00,75.6,42.0,30.01,NE,45,4.9,4.9,30,0.00,,,0.00,WUHU21623XXSP,2013-04-25 18:45:00,
2013-04-25 11:51:00,75.9,42.4,30.01,WSW,247,6.7,6.7,30,0.00,,,0.00,WUHU21623XXSP,2013-04-25 18:51:00,
2013-04-25 11:56:00,76.3,41.6,30.01,South,180,0.4,6.7,29,0.00,,,0.00,WUHU21623XXSP,2013-04-25 18:56:00,
2013-04-25 12:02:00,76.3,41.6,30.01,West,270,2.2,8.9,29,0.00,,,0.00,WUHU21623XXSP,2013-04-25 19:02:00,
2013-04-25 12:07:00,76.3,42.7,30.01,NW,315,3.1,8.9,30,0.00,,,0.00,WUHU21623XXSP,2013-04-25 19:07:00,
2013-04-25 12:12:00,76.6,42.0,30.01,West,270,6.9,6.9,29,0.00,,,0.00,WUHU21623XXSP,2013-04-25 19:12:00,
2013-04-25 12:17:00,76.5,41.8,30.01,West,270,0.0,6.9,29,0.00,,,0.00,WUHU21623XXSP,2013-04-25 19:17:00,
2013-04-25 12:23:00,76.5,41.8,30.01,West,270,4.7,6.9,29,0.00,,,0.00,WUHU21623XXSP,2013-04-25 19:23:00,
2013-04-25 12:28:00,76.8,42.1,30.01,South,180,0.0,5.1,29,0.00,,,0.00,WUHU21623XXSP,2013-04-25 19:28:00,
2013-04-25 12:33:00,77.2,42.4,30.02,North,0,4.7,5.1,29,0.00,,,0.00,WUHU21623XXSP,2013-04-25 19:33:00,
2013-04-25 12:38:00,77.4,42.6,30.01,NE,45,3.6,4.7,29,0.00,,,0.00,WUHU21623XXSP,2013-04-25 19:38:00,
2013-04-25 12:44:00,77.4,42.6,30.01,SSW,202,5.8,5.8,29,0.00,,,0.00,WUHU21623XXSP,2013-04-25 19:44:00,
2013-04-25 12:49:00,77.2,42.4,30.01,NW,315,1.8,5.8,29,0.00,,,0.00,WUHU21623XXSP,2013-04-25 19:49:00,
2013-04-25 12:54:00,76.8,42.1,30.01,NW,315,0.0,3.1,29,0.00,,,0.00,WUHU21623XXSP,2013-04-25 19:54:00,
2013-04-25 12:59:00,77.0,42.3,30.01,WSW,247,3.4,3.4,29,0.00,,,0.00,WUHU21623XXSP,2013-04-25 19:59:00,
2013-04-25 13:05:00,76.8,42.1,30.01,WSW,247,8.9,8.9,29,0.00,,,0.00,WUHU21623XXSP,2013-04-25 20:05:00,
2013-04-25 13:10:00,76.8,42.1,30.01,SW,225,8.1,8.9,29,0.00,,,0.00,WUHU21623XXSP,2013-04-25 20:10:00,
2013-04-25 13:16:00,76.8,41.1,30.01,West,270,4.3,8.1,28,0.00,,,0.00,WUHU21623XXSP,2013-04-25 20:16:00,
2013-04-25 13:21:00,76.8,42.1,30.01,SW,225,3.1,10.5,29,0.00,,,0.00,WUHU21623XXSP,2013-04-25 20:21:00,
2013-04-25 13:26:00,76.8,42.1,30.01,SW,225,6.9,10.5,29,0.00,,,0.00,WUHU21623XXSP,2013-04-25 20:26:00,
2013-04-25 13:31:00,76.8,42.1,30.01,West,270,5.8,7.2,29,0.00,,,0.00,WUHU21623XXSP,2013-04-25 20:31:00,
2013-04-25 13:37:00,76.8,42.1,30.01,NE,45,3.1,7.2,29,0.00,,,0.00,WUHU21623XXSP,2013-04-25 20:37:00,
2013-04-25 13:42:00,76.6,42.0,30.01,WSW,247,4.5,6.0,29,0.00,,,0.00,WUHU21623XXSP,2013-04-25 20:42:00,
2013-04-25 13:47:00,76.5,41.8,30.01,NNW,337,3.4,7.4,29,0.00,,,0.00,WUHU21623XXSP,2013-04-25 20:47:00,
2013-04-25 13:52:00,76.6,42.0,30.01,SSW,202,4.5,4.5,29,0.00,,,0.00,WUHU21623XXSP,2013-04-25 20:52:00,
2013-04-25 13:58:00,76.8,42.1,30.01,NNW,337,6.9,6.9,29,0.00,,,0.00,WUHU21623XXSP,2013-04-25 20:58:00,
2013-04-25 14:03:00,76.8,42.1,30.01,NW,315,0.9,6.9,29,0.00,,,0.00,WUHU21623XXSP,2013-04-25 21:03:00,
2013-04-25 14:09:00,77.2,42.4,30.02,NW,315,0.0,4.9,29,0.00,,,0.00,WUHU21623XXSP,2013-04-25 21:09:00,
2013-04-25 14:14:00,77.2,42.4,30.02,NW,315,3.6,8.3,29,0.00,,,0.00,WUHU21623XXSP,2013-04-25 21:14:00,
2013-04-25 14:19:00,77.5,42.7,30.02,WSW,247,4.0,8.3,29,0.00,,,0.00,WUHU21623XXSP,2013-04-25 21:19:00,
2013-04-25 14:25:00,77.7,42.9,30.02,NE,45,2.7,7.4,29,0.00,,,0.00,WUHU21623XXSP,2013-04-25 21:25:00,
2013-04-25 14:30:00,77.5,42.7,30.02,NE,45,1.8,6.0,29,0.00,,,0.00,WUHU21623XXSP,2013-04-25 21:30:00,
2013-04-25 14:35:00,77.5,42.7,30.02,NW,315,0.0,6.0,29,0.00,,,0.00,WUHU21623XXSP,2013-04-25 21:35:00,
2013-04-25 14:40:00,77.9,42.0,30.02,NNW,337,9.2,9.2,28,0.00,,,0.00,WUHU21623XXSP,2013-04-25 21:40:00,
2013-04-25 14:45:00,77.7,42.9,30.02,ENE,67,3.1,9.2,29,0.00,,,0.00,WUHU21623XXSP,2013-04-25 21:45:00,
2013-04-25 14:51:00,77.5,42.7,30.02,North,0,0.0,4.0,29,0.00,,,0.00,WUHU21623XXSP,2013-04-25 21:51:00,
2013-04-25 14:56:00,77.4,42.6,30.02,West,270,1.6,4.0,29,0.00,,,0.00,WUHU21623XXSP,2013-04-25 21:56:00,
2013-04-25 15:01:00,77.2,42.4,30.02,WSW,247,3.6,7.6,29,0.00,,,0.00,WUHU21623XXSP,2013-04-25 22:01:00,
2013-04-25 15:06:00,76.8,42.1,30.02,WSW,247,2.9,7.6,29,0.00,,,0.00,WUHU21623XXSP,2013-04-25 22:06:00,
2013-04-25 15:12:00,76.8,42.1,30.03,NW,315,6.9,6.9,29,0.00,,,0.00,WUHU21623XXSP,2013-04-25 22:12:00,
2013-04-25 15:18:00,76.5,41.8,30.03,WNW,292,4.3,6.9,29,0.00,,,0.00,WUHU21623XXSP,2013-04-25 22:18:00,
2013-04-25 15:23:00,76.1,41.5,30.02,WNW,292,1.1,4.3,29,0.00,,,0.00,WUHU21623XXSP,2013-04-25 22:23:00,
2013-04-25 15:28:00,75.9,41.3,30.02,NNE,22,3.6,3.6,29,0.00,,,0.00,WUHU21623XXSP,2013-04-25 22:28:00,
2013-04-25 15:33:00,75.9,41.3,30.02,WSW,247,0.0,6.0,29,0.00,,,0.00,WUHU21623XXSP,2013-04-25 22:33:00,
2013-04-25 15:38:00,75.7,42.2,30.02,WSW,247,1.6,6.0,30,0.00,,,0.00,WUHU21623XXSP,2013-04-25 22:38:00,
2013-04-25 15:44:00,75.7,41.2,30.02,WSW,247,6.9,6.9,29,0.00,,,0.00,WUHU21623XXSP,2013-04-25 22:44:00,
2013-04-25 15:49:00,75.6,41.0,30.02,WSW,247,1.6,6.9,29,0.00,,,0.00,WUHU21623XXSP,2013-04-25 22:49:00,
2013-04-25 15:54:00,75.4,40.8,30.02,WSW,247,1.1,4.3,29,0.00,,,0.00,WUHU21623XXSP,2013-04-25 22:54:00,
2013-04-25 15:59:00,74.8,40.4,30.02,WSW,247,3.1,6.5,29,0.00,,,0.00,WUHU21623XXSP,2013-04-25 22:59:00,
2013-04-25 16:05:00,74.5,40.0,30.02,WSW,247,4.5,6.5,29,0.00,,,0.00,WUHU21623XXSP,2013-04-25 23:05:00,
2013-04-25 16:10:00,74.1,39.7,30.02,WSW,247,4.3,4.5,29,0.00,,,0.00,WUHU21623XXSP,2013-04-25 23:10:00,
2013-04-25 16:16:00,73.9,39.6,30.02,WSW,247,1.3,4.3,29,0.00,,,0.00,WUHU21623XXSP,2013-04-25 23:16:00,
2013-04-25 16:21:00,73.6,40.3,30.02,WSW,247,7.6,7.6,30,0.00,,,0.00,WUHU21623XXSP,2013-04-25 23:21:00,
2013-04-25 16:26:00,73.2,40.0,30.02,WSW,247,7.2,7.6,30,0.00,,,0.00,WUHU21623XXSP,2013-04-25 23:26:00,
2013-04-25 16:32:00,73.0,39.8,30.03,WSW,247,5.6,7.2,30,0.00,,,0.00,WUHU21623XXSP,2013-04-25 23:32:00,
2013-04-25 16:37:00,72.7,39.5,30.02,WSW,247,2.5,5.6,30,0.00,,,0.00,WUHU21623XXSP,2013-04-25 23:37:00,
2013-04-25 16:42:00,72.3,39.2,30.02,WSW,247,6.5,6.5,30,0.00,,,0.00,WUHU21623XXSP,2013-04-25 23:42:00,
2013-04-25 16:47:00,72.1,39.1,30.02,WSW,247,2.7,6.5,30,0.00,,,0.00,WUHU21623XXSP,2013-04-25 23:47:00,
2013-04-25 16:53:00,71.8,38.8,30.03,West,270,0.0,5.4,30,0.00,,,0.00,WUHU21623XXSP,2013-04-25 23:53:00,
2013-04-25 16:58:00,71.4,38.5,30.03,WSW,247,0.0,5.4,30,0.00,,,0.00,WUHU21623XXSP,2013-04-25 23:58:00,
2013-04-25 17:03:00,71.2,39.1,30.03,WSW,247,1.1,4.7,31,0.00,,,0.00,WUHU21623XXSP,2013-04-26 00:03:00,
2013-04-25 17:08:00,70.9,38.8,30.03,WSW,247,4.3,4.3,31,0.00,,,0.00,WUHU21623XXSP,2013-04-26 00:08:00,
2013-04-25 17:13:00,70.9,38.8,30.03,NW,315,0.0,7.6,31,0.00,,,0.00,WUHU21623XXSP,2013-04-26 00:13:00,
2013-04-25 17:19:00,70.7,38.6,30.03,SW,225,0.0,7.6,31,0.00,,,0.00,WUHU21623XXSP,2013-04-26 00:19:00,
2013-04-25 17:25:00,70.3,38.3,30.03,WSW,247,1.3,5.6,31,0.00,,,0.00,WUHU21623XXSP,2013-04-26 00:25:00,
2013-04-25 17:30:00,70.3,39.0,30.03,WSW,247,3.6,5.6,32,0.00,,,0.00,WUHU21623XXSP,2013-04-26 00:30:00,
2013-04-25 17:35:00,70.2,38.8,30.04,WSW,247,0.0,3.6,32,0.00,,,0.00,WUHU21623XXSP,2013-04-26 00:35:00,
2013-04-25 17:40:00,69.6,38.4,30.04,SW,225,2.2,6.3,32,0.00,,,0.00,WUHU21623XXSP,2013-04-26 00:40:00,
2013-04-25 17:46:00,69.4,38.2,30.04,NNW,337,2.2,2.9,32,0.00,,,0.00,WUHU21623XXSP,2013-04-26 00:46:00,
2013-04-25 17:51:00,69.3,38.0,30.04,WNW,292,0.0,2.9,32,0.00,,,0.00,WUHU21623XXSP,2013-04-26 00:51:00,
2013-04-25 17:56:00,69.1,37.9,30.04,NW,315,0.0,5.1,32,0.00,,,0.00,WUHU21623XXSP,2013-04-26 00:56:00,
2013-04-25 18:01:00,68.9,37.7,30.04,ENE,67,0.0,5.1,32,0.00,,,0.00,WUHU21623XXSP,2013-04-26 01:01:00,
2013-04-25 18:06:00,68.5,37.4,30.04,NNW,337,5.6,5.6,32,0.00,,,0.00,WUHU21623XXSP,2013-04-26 01:06:00,
2013-04-25 18:12:00,68.4,37.2,30.04,NW,315,0.0,5.6,32,0.00,,,0.00,WUHU21623XXSP,2013-04-26 01:12:00,
2013-04-25 18:17:00,68.2,37.1,30.04,WNW,292,1.6,5.1,32,0.00,,,0.00,WUHU21623XXSP,2013-04-26 01:17:00,
2013-04-25 18:22:00,67.8,37.5,30.05,NNE,22,6.0,6.0,33,0.00,,,0.00,WUHU21623XXSP,2013-04-26 01:22:00,
2013-04-25 18:27:00,67.5,37.2,30.05,NNE,22,4.7,6.0,33,0.00,,,0.00,WUHU21623XXSP,2013-04-26 01:27:00,
2013-04-25 18:33:00,67.3,37.0,30.05,WNW,292,5.6,5.6,33,0.00,,,0.00,WUHU21623XXSP,2013-04-26 01:33:00,
2013-04-25 18:39:00,66.9,36.7,30.05,West,270,2.5,5.6,33,0.00,,,0.00,WUHU21623XXSP,2013-04-26 01:39:00,
2013-04-25 18:44:00,66.6,37.1,30.05,North,0,7.4,7.4,34,0.00,,,0.00,WUHU21623XXSP,2013-04-26 01:44:00,
2013-04-25 18:49:00,66.2,36.9,30.06,NNW,337,0.0,7.4,34,0.00,,,0.00,WUHU21623XXSP,2013-04-26 01:49:00,
2013-04-25 18:54:00,65.8,37.3,30.05,ESE,112,3.6,3.6,35,0.00,,,0.00,WUHU21623XXSP,2013-04-26 01:54:00,
2013-04-25 18:59:00,65.5,36.9,30.06,NW,315,3.4,3.6,35,0.00,,,0.00,WUHU21623XXSP,2013-04-26 01:59:00,
2013-04-25 19:05:00,65.1,36.6,30.06,North,0,0.4,3.4,35,0.00,,,0.00,WUHU21623XXSP,2013-04-26 02:05:00,
2013-04-25 19:10:00,64.2,36.5,30.06,NNE,22,4.0,4.0,36,0.00,,,0.00,WUHU21623XXSP,2013-04-26 02:10:00,
2013-04-25 19:15:00,64.0,35.6,30.06,WNW,292,0.0,4.0,35,0.00,,,0.00,WUHU21623XXSP,2013-04-26 02:15:00,
2013-04-25 19:20:00,63.5,35.9,30.06,SW,225,1.6,3.8,36,0.00,,,0.00,WUHU21623XXSP,2013-04-26 02:20:00,
2013-04-25 19:26:00,63.1,36.3,30.06,WNW,292,0.0,3.4,37,0.00,,,0.00,WUHU21623XXSP,2013-04-26 02:26:00,
2013-04-25 19:31:00,62.8,35.9,30.06,NW,315,0.0,1.1,37,0.00,,,0.00,WUHU21623XXSP,2013-04-26 02:31:00,
2013-04-25 19:36:00,62.4,35.6,30.06,NE,45,0.0,2.9,37,0.00,,,0.00,WUHU21623XXSP,2013-04-26 02:36:00,
2013-04-25 19:42:00,61.9,35.9,30.06,WNW,292,1.8,2.9,38,0.00,,,0.00,WUHU21623XXSP,2013-04-26 02:42:00,
2013-04-25 19:47:00,61.5,35.5,30.06,NE,45,2.7,2.7,38,0.00,,,0.00,WUHU21623XXSP,2013-04-26 02:47:00,
2013-04-25 19:53:00,61.2,35.2,30.07,NNW,337,0.0,2.7,38,0.00,,,0.00,WUHU21623XXSP,2013-04-26 02:53:00,
2013-04-25 19:58:00,60.8,34.9,30.07,WNW,292,0.0,0.0,38,0.00,,,0.00,WUHU21623XXSP,2013-04-26 02:58:00,
2013-04-25 20:03:00,60.4,35.3,30.07,West,270,0.0,0.0,39,0.00,,,0.00,WUHU21623XXSP,2013-04-26 03:03:00,
2013-04-25 20:08:00,60.1,34.2,30.07,NW,315,0.0,0.0,38,0.00,,,0.00,WUHU21623XXSP,2013-04-26 03:08:00,
2013-04-25 20:13:00,59.7,34.6,30.08,NNW,337,0.0,0.0,39,0.00,,,0.00,WUHU21623XXSP,2013-04-26 03:13:00,
2013-04-25 20:19:00,59.2,34.1,30.08,WNW,292,0.0,0.0,39,0.00,,,0.00,WUHU21623XXSP,2013-04-26 03:19:00,
2013-04-25 20:24:00,58.8,33.8,30.08,WNW,292,0.0,0.0,39,0.00,,,0.00,WUHU21623XXSP,2013-04-26 03:24:00,
2013-04-25 20:29:00,58.6,33.7,30.08,WNW,292,0.0,0.0,39,0.00,,,0.00,WUHU21623XXSP,2013-04-26 03:29:00,
2013-04-25 20:34:00,58.1,33.2,30.08,WNW,292,0.0,0.0,39,0.00,,,0.00,WUHU21623XXSP,2013-04-26 03:34:00,
2013-04-25 20:40:00,57.6,33.4,30.08,WNW,292,0.0,0.0,40,0.00,,,0.00,WUHU21623XXSP,2013-04-26 03:40:00,
2013-04-25 20:45:00,57.2,33.1,30.09,WNW,292,0.0,0.0,40,0.00,,,0.00,WUHU21623XXSP,2013-04-26 03:45:00,
2013-04-25 20:51:00,56.8,33.3,30.09,WNW,292,0.0,0.0,41,0.00,,,0.00,WUHU21623XXSP,2013-04-26 03:51:00,
2013-04-25 20:56:00,56.3,32.8,30.09,WNW,292,0.0,0.0,41,0.00,,,0.00,WUHU21623XXSP,2013-04-26 03:56:00,
2013-04-25 21:01:00,55.8,32.3,30.09,WNW,292,0.0,0.0,41,0.00,,,0.00,WUHU21623XXSP,2013-04-26 04:01:00,
2013-04-25 21:06:00,55.4,32.6,30.09,West,270,0.0,0.0,42,0.00,,,0.00,WUHU21623XXSP,2013-04-26 04:06:00,
2013-04-25 21:12:00,55.2,32.4,30.09,West,270,0.0,0.0,42,0.00,,,0.00,WUHU21623XXSP,2013-04-26 04:12:00,
2013-04-25 21:17:00,54.9,32.1,30.10,West,270,0.0,0.0,42,0.00,,,0.00,WUHU21623XXSP,2013-04-26 04:17:00,
2013-04-25 21:22:00,54.5,32.3,30.09,West,270,0.0,0.0,43,0.00,,,0.00,WUHU21623XXSP,2013-04-26 04:22:00,
2013-04-25 21:27:00,54.3,32.2,30.10,West,270,0.0,0.0,43,0.00,,,0.00,WUHU21623XXSP,2013-04-26 04:27:00,
2013-04-25 21:33:00,53.8,31.7,30.09,West,270,0.0,0.0,43,0.00,,,0.00,WUHU21623XXSP,2013-04-26 04:33:00,
2013-04-25 21:38:00,53.4,31.4,30.10,West,270,0.0,0.0,43,0.00,,,0.00,WUHU21623XXSP,2013-04-26 04:38:00,
2013-04-25 21:43:00,53.4,31.9,30.10,West,270,0.0,0.0,44,0.00,,,0.00,WUHU21623XXSP,2013-04-26 04:43:00,
2013-04-25 21:48:00,53.1,31.6,30.11,West,270,0.0,0.0,44,0.00,,,0.00,WUHU21623XXSP,2013-04-26 04:48:00,
2013-04-25 21:54:00,52.7,31.3,30.11,West,270,0.0,0.0,44,0.00,,,0.00,WUHU21623XXSP,2013-04-26 04:54:00,
2013-04-25 21:59:00,52.2,31.3,30.11,West,270,0.0,0.0,45,0.00,,,0.00,WUHU21623XXSP,2013-04-26 04:59:00,
2013-04-25 22:04:00,51.8,31.0,30.11,West,270,0.0,0.0,45,0.00,,,0.00,WUHU21623XXSP,2013-04-26 05:04:00,
2013-04-25 22:09:00,51.4,31.2,30.11,West,270,0.0,0.0,46,0.00,,,0.00,WUHU21623XXSP,2013-04-26 05:09:00,
2013-04-25 22:15:00,50.9,30.8,30.11,West,270,0.0,0.0,46,0.00,,,0.00,WUHU21623XXSP,2013-04-26 05:15:00,
2013-04-25 22:20:00,50.7,31.2,30.11,West,270,0.0,0.0,47,0.00,,,0.00,WUHU21623XXSP,2013-04-26 05:20:00,
2013-04-25 22:25:00,50.4,30.8,30.11,West,270,0.0,0.0,47,0.00,,,0.00,WUHU21623XXSP,2013-04-26 05:25:00,
2013-04-25 22:30:00,50.2,31.2,30.11,West,270,0.0,0.0,48,0.00,,,0.00,WUHU21623XXSP,2013-04-26 05:30:00,
2013-04-25 22:35:00,50.2,31.2,30.11,West,270,1.1,1.1,48,0.00,,,0.00,WUHU21623XXSP,2013-04-26 05:35:00,
2013-04-25 22:41:00,50.2,31.2,30.11,West,270,0.0,1.1,48,0.00,,,0.00,WUHU21623XXSP,2013-04-26 05:41:00,
2013-04-25 22:46:00,50.2,31.2,30.11,West,270,0.0,0.0,48,0.00,,,0.00,WUHU21623XXSP,2013-04-26 05:46:00,
2013-04-25 22:51:00,50.4,30.8,30.11,West,270,0.0,0.0,47,0.00,,,0.00,WUHU21623XXSP,2013-04-26 05:51:00,
2013-04-25 22:56:00,50.5,31.0,30.11,West,270,0.0,0.0,47,0.00,,,0.00,WUHU21623XXSP,2013-04-26 05:56:00,
2013-04-25 23:02:00,50.4,30.8,30.11,West,270,0.0,0.0,47,0.00,,,0.00,WUHU21623XXSP,2013-04-26 06:02:00,
2013-04-25 23:07:00,50.2,31.2,30.11,West,270,0.0,0.0,48,0.00,,,0.00,WUHU21623XXSP,2013-04-26 06:07:00,
2013-04-25 23:12:00,49.8,30.9,30.11,West,270,0.0,0.0,48,0.00,,,0.00,WUHU21623XXSP,2013-04-26 06:12:00,
2013-04-25 23:17:00,49.6,30.7,30.11,West,270,0.0,0.0,48,0.00,,,0.00,WUHU21623XXSP,2013-04-26 06:17:00,
2013-04-25 23:23:00,49.1,30.2,30.11,West,270,0.0,0.0,48,0.00,,,0.00,WUHU21623XXSP,2013-04-26 06:23:00,
2013-04-25 23:28:00,48.9,30.0,30.11,West,270,0.0,0.0,48,0.00,,,0.00,WUHU21623XXSP,2013-04-26 06:28:00,
2013-04-25 23:33:00,48.6,29.6,30.11,West,270,0.0,0.0,48,0.00,,,0.00,WUHU21623XXSP,2013-04-26 06:33:00,
2013-04-25 23:38:00,48.4,29.5,30.12,West,270,0.0,0.0,48,0.00,,,0.00,WUHU21623XXSP,2013-04-26 06:38:00,
2013-04-25 23:44:00,47.8,29.5,30.11,SW,225,0.0,0.0,49,0.00,,,0.00,WUHU21623XXSP,2013-04-26 06:44:00,
2013-04-25 23:49:00,47.5,29.2,30.12,SW,225,0.0,0.0,49,0.00,,,0.00,WUHU21623XXSP,2013-04-26 06:49:00,
2013-04-25 23:54:00,47.3,29.6,30.11,SW,225,0.0,0.0,50,0.00,,,0.00,WUHU21623XXSP,2013-04-26 06:54:00,
2013-04-25 23:59:00,46.9,29.2,30.12,SW,225,0.0,0.0,50,0.00,,,0.00,WUHU21623XXSP,2013-04-26 06:59:00,